Hourly Weather Roundup
Issued by NWS

Home | Current Version | Previous Version | Text Only | Print | Product List | Glossary On
Versions: 1 2 3 4 5 6 7 8 9 10 11 12 13 14 15 16 17 18 19 20 21 22 23 24 25 26 27 28 29 30 31 32 33 34 35 36 37 38 39 40 41 42 43 44 45 46 47 48 49 50
000
NZUS43 KILX 040010
HWRCRS

CRS HOURLY WEATHER ROUNDUP
NATIONAL WEATHER SERVICE, LINCOLN IL
700 PM CDT THU SEP 03 2015


CITY           SKY/WX    TMP DP  RH WIND       PRES   REMARKS
CHAMPAIGN      CLEAR     84  69  60 S6        29.92S HX  88
LAWRENCEVILLE  MOCLDY    86  67  52 SW5       29.92F HX  89
PEORIA         CLEAR     88  68  51 CALM      29.90S HX  91
SPRINGFIELD    CLEAR     88  66  48 SW6       29.91S HX  90
$$


CITY           SKY/WX    TMP DP  RH WIND       PRES   REMARKS
BLOOMINGTON    CLEAR     89  67  48 W7        29.93S HX  92
DECATUR        CLEAR     87  66  49 SW7       29.91S HX  89
EFFINGHAM      CLEAR     84  65  54 SW3       29.94S HX  85
FLORA          CLEAR     86  66  52 SW3       29.93S HX  88
GALESBURG      CLEAR     85  72  66 CALM      29.90S HX  91
JACKSONVILLE   CLEAR     88  68  52 S5        29.90S HX  91
LACON          CLEAR     86  69  56 CALM      29.89S HX  90
LINCOLN        CLEAR     91  64  41 CALM      29.89S HX  92
LITCHFIELD     CLEAR     85  66  53 CALM      29.93S HX  87

CITY           SKY/WX    TMP DP  RH WIND       PRES   REMARKS
MACOMB         CLEAR     87  67  51 CALM      29.91F HX  90
MATTOON        CLEAR     85  66  53 SW6       29.92S HX  87
MOLINE         CLEAR     88  71  57 S3        29.88S HX  94
OLNEY          CLEAR     84  70  61 W3        29.93S HX  88
PARIS          PTCLDY    84  70  62 S5        29.93S HX  88
PONTIAC        CLEAR     86  72  64 CALM      29.91S HX  92
QUINCY         CLEAR     87  68  52 SW5       29.90S HX  90
RANTOUL        CLEAR    N/A N/A N/A SW3       29.91
ROBINSON       CLEAR     85  70  60 CALM      29.93S HX  89
TAYLORVILLE    CLEAR     82  68  61 SW5       29.92S HX  85
TERRE HAUTE    CLEAR     85  66  53 W3        29.93R HX  87
$$


CITY           SKY/WX    TMP DP  RH WIND       PRES   REMARKS
BURLINGTON     CLEAR     87  70  56 S5        29.88F HX  92
CHICAGO        MOCLDY    76  69  79 NE16      29.90R
DES MOINES     PTCLDY    86  70  58 S8        29.85S HX  90
EVANSVILLE     CLEAR     87  67  51 CALM      29.93S HX  90
INDIANAPOLIS   PTCLDY    84  65  52 SW8       29.93S HX  86
KANSAS CITY    PTCLDY    86  68  54 S9        29.88S HX  89
MILWAUKEE      PTCLDY    68  63  84 NE7       29.92S
ST LOUIS       PTCLDY    90  65  43 S7        29.92S HX  92
$$




USA.gov is the U.S. government's official web portal to all federal, state and local government web resources and services.